Weather Roundup
Issued by NWS Chicago, IL

Home | Current Version | Previous Version | Text Only | Print | Product List | Glossary On
Versions: 1 2 3 4 5 6 7 8 9 10 11 12 13 14 15 16 17 18 19 20 21 22 23 24 25 26 27 28 29 30 31 32 33 34 35 36 37 38 39 40 41 42 43 44 45 46 47 48 49 50
000
NZUS59 KLOT 041908
HRRLOT

CHICAGO AREA WEATHER ROUNDUP
NATIONAL WEATHER SERVICE CHICAGO/ROMEOVILLE IL
200 PM CDT SAT JUL 04 2015

NOTE: "FAIR" INDICATES FEW OR NO CLOUDS BELOW 12,000 FEET WITH NO
SIGNIFICANT WEATHER AND/OR OBSTRUCTIONS TO VISIBILITY.

* THESE STATIONS ARE NOT UNDER NWS QUALITY CONTROL. THEY ALSO MAY NOT
  REPORT WEATHER SUCH AS PRECIPITATION OR FOG.

ILZ005-006-012>014-019>023-042000-
NORTHEAST ILLINOIS

CITY           SKY/WX    TMP DP  RH WIND       PRES   REMARKS
OHARE          MOSUNNY   80  56  43 CALM      30.00S HX  80
MIDWAY         MOSUNNY   82  56  40 VRB6      29.99F HX  82
AURORA         SUNNY     80  58  46 SW7       30.02S HX  80
LANSING*       MOSUNNY   79  55  42 SW9       30.01S HX  80
JOLIET*        MOSUNNY   80  61  53 CALM      30.01S HX  81
WAUKEGAN       SUNNY     76  59  55 SE9       30.00S
DUPAGE AIRPORT SUNNY     79  55  43 SW9       30.00F
WHEELING       SUNNY     79  55  43 VRB6      30.01S
KANKAKEE*      PTSUNNY   80  62  54 SW9       30.02F HX  81
MORRIS*        SUNNY     78  56  46 SW6       30.01S
LEWIS AIRPORT* MOSUNNY   80  56  44 W6        30.01S HX  80
NORTHERLY IS     N/A     70  58  65 E5          N/A
$$

WIZ051-052-058>065-066-070>072-042000-
SOUTHEAST WISCONSIN

CITY           SKY/WX    TMP DP  RH WIND       PRES   REMARKS
MILWAUKEE      MOSUNNY   79  60  52 SE10      29.99S HX  80
KENOSHA*       MOSUNNY   79  59  50 CALM      30.00S HX  80
RACINE*        SUNNY     78  58  49 SE8       30.01S
BURLINGTON     SUNNY     77  60  54 SW7       30.00S
WAUKESHA       MOSUNNY   77  57  50 W6        30.00F
WEST BEND      CLOUDY    79  57  47 CALM      29.99S HX  80
$$

INZ001>003-010>013-019-020-042000-
NORTHWEST INDIANA

CITY           SKY/WX    TMP DP  RH WIND       PRES   REMARKS
GARY*          MOSUNNY  N/A N/A N/A NE7       30.01F
MICHIGAN CITY* NOT AVBL
RENSSELAER*    NOT AVBL
VALPARAISO     MOSUNNY   77  58  51 SW5       30.02F
$$

LMZ740>746-042000-
SOUTHERN LAKE MICHIGAN

STATION/POSITION TIME  SKY/WX   TEMP WIND        PRES    VSBY
                                AIR  DIR/SP/G
                 (UTC)          (F)  (DEG/KT/KT) (MB)    (MI)
HARRISON CRIB    1800            67  110/  8/  9   N/A
BURNHAM HARBOR   1900            70   80/  3/  5   N/A
CALUMET HARBOR   1800            71   70/  8/ 10   N/A
BURNS HARBOR     1800            70   40/  5/  6 1016.9F
MICHIGAN CITY    1800            70  310/  4/  4   N/A
$$

ABBREVIATIONS USED IN REMARKS
   TC - TEMPERATURE IN CELSIUS
  WCI - WIND CHILL INDEX
   HX - HEAT INDEX
  VSB - VISIBILITY
$$



USA.gov is the U.S. government's official web portal to all federal, state and local government web resources and services.